EUTELSAT 7B             
1 39163U 13022A   19258.79563490  .00000039  00000-0  00000-0 0  9990
2 39163   0.0205  34.4243 0001048 321.5641 291.8816  1.00269959 23243
BREEZE-M R/B            
1 39164U 13022B   19258.00537134  .00000118  00000-0  00000-0 0  9999
2 39164  17.6517 173.1448 5367050 213.2192  97.2910  2.02196174 46804
BREEZE-M DEB [TANK]     
1 39165U 13022C   19258.64261033  .00001046  00000-0  27501-3 0  9991
2 39165  49.4581 101.7961 5664617 160.2847 236.0224  4.52856542103986